KA8OAD-10 Weather Reports


time (UTC)temp
F
wind
direction
speed
knots
gust
knots
rain 1hr
in
rain 24hr
in
rain mn
in
humidity
%
barometer
mb
20260507174732 62 276 3.5 12.2 0.00 0.00 0.00 43 1010.1
20260507173731 61 269 4.3 11.3 0.00 0.00 0.00 46 1010.4
20260507172730 60 246 3.5 7.8 0.00 0.00 0.00 47 1010.4
20260507172230 60 245 4.3 9.6 0.00 0.00 0.00 46 1010.4
20260507171729 59 254 2.6 9.6 0.00 0.00 0.00 44 1010.4
20260507171233 60 249 2.6 6.1 0.00 0.00 0.00 41 1010.5
20260507170731 60 263 2.6 8.7 0.00 0.00 0.00 45 1010.5
20260507170233 60 271 2.6 8.7 0.00 0.00 0.00 45 1010.5
20260507165232 61 307 2.6 8.7 0.00 0.00 0.00 43 1010.5
20260507164732 61 283 2.6 8.7 0.00 0.00 0.00 42 1010.5
20260507164231 61 280 2.6 7.8 0.00 0.00 0.00 46 1010.6
20260507162733 60 304 2.6 7.8 0.00 0.00 0.00 47 1010.6
20260507162232 60 305 2.6 7.0 0.00 0.00 0.00 43 1010.6
20260507161732 60 308 3.5 10.4 0.00 0.00 0.00 46 1010.6
20260507160230 60 282 2.6 8.7 0.00 0.00 0.00 45 1010.6
20260507155730 60 285 2.6 8.7 0.00 0.00 0.00 45 1010.6
20260507155233 60 289 2.6 7.0 0.00 0.00 0.00 46 1010.7
20260507154732 60 313 3.5 12.2 0.00 0.00 0.00 45 1010.7
20260507154232 60 306 3.5 12.2 0.00 0.00 0.00 46 1010.7
20260507153731 59 266 2.6 10.4 0.00 0.00 0.00 47 1010.7
20260507153230 59 238 1.7 7.0 0.00 0.00 0.00 45 1010.7
20260507152730 58 285 2.6 8.7 0.00 0.00 0.00 48 1010.7
20260507152230 58 281 2.6 8.7 0.00 0.00 0.00 49 1010.7
20260507151730 58 255 1.7 5.2 0.00 0.00 0.00 48 1010.8
20260507151232 58 281 1.7 5.2 0.00 0.00 0.00 50 1010.7
20260507150732 58 243 2.6 5.2 0.00 0.00 0.00 52 1010.7
20260507145731 57 294 2.6 7.0 0.00 0.00 0.00 53 1010.9
20260507145230 56 301 2.6 5.2 0.00 0.00 0.00 55 1010.8
20260507143729 54 260 1.7 3.5 0.00 0.00 0.00 62 1010.9
20260507143233 53 289 1.7 4.3 0.00 0.00 0.00 61 1010.9
20260507142732 52 317 2.6 5.2 0.00 0.00 0.00 62 1010.9
20260507142232 52 310 2.6 5.2 0.00 0.00 0.00 63 1011.0
20260507141731 52 286 1.7 5.2 0.00 0.00 0.00 66 1011.0
20260507141230 52 286 1.7 4.3 0.00 0.00 0.00 68 1011.1
20260507140730 51 310 2.6 4.3 0.00 0.00 0.00 68 1011.2
20260507135733 50 258 1.7 2.6 0.00 0.00 0.00 72 1011.2
20260507135232 50 284 0.9 2.6 0.00 0.00 0.00 74 1011.3
20260507133730 49 239 1.7 4.3 0.00 0.00 0.00 76 1011.4
20260507133229 49 253 1.7 5.2 0.00 0.00 0.00 76 1011.4
20260507132733 48 249 1.7 5.2 0.00 0.00 0.00 77 1011.5
20260507132232 48 275 2.6 7.8 0.00 0.00 0.00 78 1011.5
20260507131732 48 306 2.6 7.8 0.00 0.00 0.00 80 1011.5
20260507131231 47 302 0.9 4.3 0.00 0.00 0.00 82 1011.5
20260507130731 47 290 0.0 2.6 0.00 0.00 0.00 83 1011.5
20260507130230 46 240 0.9 2.6 0.00 0.00 0.00 84 1011.4
20260507125729 46 239 0.9 2.6 0.00 0.00 0.00 86 1011.4
20260507125233 46 238 0.9 3.5 0.00 0.00 0.00 87 1011.5
20260507124231 45 249 1.7 5.2 0.00 0.00 0.00 88 1011.4
20260507123731 44 250 0.9 5.2 0.00 0.00 0.00 90 1011.5
20260507123230 44 263 0.9 3.5 0.00 0.00 0.00 90 1011.5
20260507120732 42 267 0.0 2.6 0.00 0.00 0.00 91 1011.4
20260507120232 42 317 0.0 1.7 0.00 0.00 0.00 91 1011.4
20260507114730 40 330 0.0 2.6 0.00 0.00 0.00 90 1011.5
20260507114229 40 0 0.0 0.0 0.00 0.00 0.00 90 1011.5
20260507113729 40 0 0.0 0.0 0.00 0.00 0.00 90 1011.5
20260507112732 39 0 0.0 0.0 0.00 0.00 0.00 89 1011.3
20260507112232 39 0 0.0 0.0 0.00 0.00 0.00 89 1011.2
20260507111231 39 0 0.0 0.0 0.00 0.00 0.00 89 1011.3
20260507110730 39 0 0.0 0.0 0.00 0.00 0.00 89 1011.2
20260507105733 39 0 0.0 0.0 0.00 0.00 0.00 89 1011.1
20260507100732 39 0 0.0 0.0 0.00 0.00 0.00 89 1011.0
20260507100231 39 0 0.0 0.0 0.00 0.00 0.00 88 1011.0
20260507095230 39 0 0.0 0.0 0.00 0.00 0.00 88 1010.9
20260507094233 39 0 0.0 0.0 0.00 0.01 0.00 88 1011.0
20260507091730 39 0 0.0 0.0 0.00 0.03 0.00 88 1011.1
20260507090733 39 0 0.0 0.0 0.00 0.05 0.00 88 1011.1
20260507090232 39 0 0.0 0.0 0.00 0.05 0.00 88 1011.1
20260507085732 39 0 0.0 0.0 0.00 0.05 0.00 87 1011.1
20260507085231 39 0 0.0 0.0 0.00 0.05 0.00 87 1011.2
20260507084731 40 0 0.0 0.0 0.00 0.05 0.00 87 1011.1
20260507084231 40 0 0.0 0.0 0.00 0.05 0.00 87 1011.1
20260507083229 40 0 0.0 0.0 0.00 0.05 0.00 86 1011.2
20260507082733 40 0 0.0 0.0 0.00 0.05 0.00 86 1011.2
20260507082233 40 0 0.0 0.0 0.00 0.05 0.00 86 1011.2
20260507081732 40 0 0.0 0.0 0.00 0.07 0.00 86 1011.2
20260507080230 40 0 0.0 0.0 0.00 0.10 0.00 86 1011.2
20260507075730 40 0 0.0 0.0 0.00 0.10 0.00 86 1011.3
20260507075229 40 0 0.0 0.0 0.00 0.11 0.00 86 1011.3
20260507074733 41 0 0.0 0.0 0.00 0.12 0.00 86 1011.3
20260507074233 41 0 0.0 0.0 0.00 0.14 0.00 85 1011.3
20260507073732 41 0 0.0 0.0 0.00 0.14 0.00 85 1011.3
20260507072731 41 0 0.0 0.0 0.00 0.15 0.00 85 1011.3
20260507072231 41 0 0.0 0.0 0.00 0.15 0.00 85 1011.3
20260507071730 41 0 0.0 0.0 0.00 0.17 0.00 85 1011.3
20260507064231 42 0 0.0 0.0 0.00 0.23 0.00 84 1011.5
20260507063230 42 0 0.0 0.0 0.00 0.23 0.00 84 1011.6
20260507061732 43 0 0.0 0.0 0.00 0.25 0.00 83 1011.7
20260507061232 43 0 0.0 0.0 0.00 0.27 0.00 83 1011.8
20260507060731 43 0 0.0 0.0 0.00 0.28 0.00 83 1011.8
20260507060230 43 0 0.0 0.0 0.00 0.28 0.00 83 1011.9
20260507055730 43 0 0.0 0.0 0.00 0.28 0.00 83 1011.9
20260507055233 44 0 0.0 0.0 0.00 0.30 0.00 83 1011.9
20260507054732 44 0 0.0 0.0 0.00 0.30 0.00 82 1012.0
20260507054232 44 0 0.0 0.0 0.00 0.31 0.00 82 1012.0
20260507053731 44 0 0.0 0.0 0.00 0.31 0.00 82 1012.0
20260507053231 44 0 0.0 0.0 0.00 0.31 0.00 82 1012.0
20260507052730 44 0 0.0 0.0 0.00 0.31 0.00 82 1012.0
20260507052229 44 0 0.0 0.0 0.00 0.33 0.00 82 1012.1
20260507051733 44 0 0.0 0.0 0.00 0.34 0.00 82 1012.1
20260507050732 45 0 0.0 0.0 0.00 0.34 0.00 81 1012.1
20260507050231 45 0 0.0 0.0 0.00 0.34 0.00 82 1012.1
20260507045824 45 0 0.0 0.0 0.00 0.34 0.00 82 1012.0
20260507045731 45 0 0.0 0.0 0.00 0.34 0.00 82 1012.0
20260507045231 45 0 0.0 0.0 0.00 0.36 0.00 82 1012.1
20260507044730 45 0 0.0 0.0 0.00 0.36 0.00 82 1012.1
20260507044230 45 0 0.0 0.0 0.00 0.36 0.00 82 1012.1
20260507043733 45 0 0.0 0.0 0.00 0.37 0.00 82 1012.1
20260507042732 45 0 0.0 0.0 0.00 0.37 0.00 81 1012.1
20260507042232 45 0 0.0 0.0 0.00 0.37 0.00 80 1012.2
20260507041731 45 0 0.0 0.0 0.00 0.37 0.00 80 1012.2
20260507040730 45 0 0.0 0.0 0.00 0.38 0.00 79 1012.4
20260507040230 46 0 0.0 0.0 0.00 0.38 0.00 78 1012.4
20260507035734 46 0 0.0 0.0 0.00 0.40 0.39 77 1012.5
20260507035232 46 0 0.0 0.0 0.00 0.40 0.39 77 1012.5
20260507034732 46 0 0.0 0.0 0.00 0.40 0.39 76 1012.6
20260507034231 46 0 0.0 0.0 0.00 0.41 0.39 75 1012.6
20260507033731 46 0 0.0 0.0 0.00 0.41 0.39 74 1012.7
20260507033231 47 0 0.0 0.0 0.00 0.43 0.39 73 1012.7
20260507032730 47 0 0.0 0.0 0.00 0.43 0.39 72 1012.8
20260507032230 47 0 0.0 0.0 0.00 0.43 0.39 72 1012.8
20260507031733 47 0 0.0 0.0 0.00 0.43 0.39 72 1012.8
20260507031233 47 0 0.0 0.0 0.00 0.43 0.39 71 1012.7
20260507030732 48 0 0.0 0.0 0.00 0.44 0.39 71 1012.7
20260507030231 48 0 0.0 0.0 0.00 0.44 0.39 71 1012.6
20260507025731 48 0 0.0 0.0 0.00 0.46 0.39 70 1012.5
20260507025231 48 0 0.0 0.0 0.00 0.46 0.39 70 1012.6
20260507024229 48 0 0.0 0.0 0.00 0.47 0.39 69 1012.5
20260507023733 48 0 0.0 0.0 0.00 0.47 0.39 69 1012.3
20260507023233 48 0 0.0 0.0 0.00 0.49 0.39 69 1012.3
20260507021230 48 0 0.0 0.0 0.00 0.58 0.39 68 1012.3
20260507020730 49 0 0.0 0.0 0.00 0.61 0.39 68 1012.3
20260507020229 49 0 0.0 0.0 0.00 0.62 0.39 68 1012.2
20260507015734 49 0 0.0 0.0 0.00 0.63 0.39 67 1012.2
20260507014232 49 0 0.0 0.0 0.00 0.68 0.39 67 1012.1
20260507013731 49 0 0.0 0.0 0.00 0.69 0.39 67 1012.0
20260507013231 49 0 0.0 0.0 0.00 0.72 0.39 66 1011.9
20260507012730 49 0 0.0 0.0 0.00 0.74 0.39 66 1011.8
20260507012229 49 0 0.0 0.0 0.00 0.75 0.39 66 1011.8
20260507011733 49 0 0.0 0.0 0.00 0.76 0.39 64 1011.8
20260507011232 50 0 0.0 0.0 0.00 0.79 0.39 64 1011.8
20260507010732 50 332 0.0 1.7 0.00 0.81 0.39 65 1011.8
20260507010232 50 333 0.0 1.7 0.00 0.81 0.39 64 1011.7
20260507005732 50 332 0.0 1.7 0.00 0.83 0.39 64 1011.7
20260507005231 50 331 0.0 1.7 0.00 0.83 0.39 63 1011.7
20260507004730 50 0 0.0 0.0 0.00 0.85 0.39 63 1011.6
20260507004230 50 0 0.0 0.0 0.00 0.85 0.39 62 1011.7
20260507003232 50 329 0.0 0.9 0.00 0.86 0.39 62 1011.8
20260507002732 50 328 0.0 1.7 0.00 0.86 0.39 62 1011.7
20260507002231 50 328 0.9 2.6 0.00 0.86 0.39 62 1011.6
20260507001731 50 328 0.9 2.6 0.00 0.86 0.39 61 1011.6
20260507000730 51 326 0.9 3.5 0.00 0.86 0.39 60 1011.5
20260506235733 51 290 0.9 3.5 0.00 0.86 0.39 59 1011.6
20260506235233 51 284 1.7 3.5 0.00 0.86 0.39 60 1011.6
20260506234732 51 286 1.7 3.5 0.00 0.87 0.39 60 1011.6
20260506234231 51 299 1.7 4.3 0.00 0.87 0.39 59 1011.6
20260506233731 51 320 1.7 4.3 0.00 0.89 0.39 60 1011.6
20260506232229 52 307 1.7 3.5 0.00 0.93 0.39 59 1011.5
20260506231232 52 305 1.7 4.3 0.00 0.98 0.39 58 1011.3
20260506230732 52 301 1.7 4.3 0.00 1.00 0.39 58 1011.2
20260506225729 53 318 1.7 4.3 0.00 1.14 0.39 57 1011.3
20260506225232 53 323 1.7 7.8 0.00 1.16 0.39 57 1011.2
20260506224231 53 323 2.6 8.7 0.00 1.17 0.39 56 1011.2
20260506223231 54 314 1.7 6.1 0.00 1.17 0.39 57 1010.9
20260506222229 54 325 2.6 7.0 0.00 1.17 0.39 57 1010.9
20260506221232 54 344 1.7 3.5 0.00 1.17 0.39 55 1010.7
20260506214733 55 318 2.6 4.3 0.00 1.17 0.39 52 1010.4
20260506212731 55 305 2.6 7.0 0.00 1.17 0.39 50 1010.2
20260506212230 55 314 1.7 5.2 0.00 1.17 0.39 51 1010.1
20260506211233 56 314 2.6 6.1 0.00 1.17 0.39 49 1010.3
20260506210732 56 323 2.6 6.1 0.00 1.20 0.39 51 1010.2
20260506210232 56 321 1.7 5.2 0.00 1.20 0.39 48 1010.2
20260506205731 56 303 1.7 6.1 0.00 1.20 0.39 47 1010.2
20260506205230 56 300 1.7 6.1 0.00 1.20 0.39 49 1010.3
20260506204229 56 313 2.6 9.6 0.00 1.20 0.39 49 1010.5
20260506203232 56 309 2.6 9.6 0.00 1.21 0.39 48 1010.2
20260506202732 56 312 2.6 9.6 0.00 1.24 0.39 47 1010.2
20260506202231 56 309 2.6 6.1 0.00 1.24 0.39 48 1010.2
20260506201731 56 298 2.6 7.0 0.00 1.24 0.39 51 1010.2
20260506201230 56 289 1.7 7.0 0.00 1.24 0.39 50 1010.3
20260506200229 57 300 3.5 7.8 0.00 1.24 0.39 50 1010.5
20260506195232 58 321 2.6 4.3 0.00 1.24 0.39 50 1010.3
20260506193731 59 313 2.6 9.6 0.00 1.24 0.39 47 1010.1
20260506193230 60 309 4.3 12.2 0.00 1.24 0.39 46 1010.1
20260506192730 60 308 4.3 12.2 0.00 1.24 0.39 46 1010.2
20260506191733 61 311 2.6 8.7 0.00 1.24 0.39 49 1010.4
20260506191233 61 321 3.5 8.7 0.00 1.24 0.39 48 1010.1
20260506190231 61 321 2.6 10.4 0.00 1.24 0.39 48 1010.3
20260506185731 61 330 3.5 10.4 0.00 1.24 0.39 48 1010.4
20260506185231 61 314 2.6 10.4 0.00 1.24 0.39 47 1010.4
20260506184229 62 324 2.6 7.0 0.00 1.24 0.39 50 1010.4
20260506183729 62 326 2.6 7.8 0.00 1.24 0.39 49 1010.4
20260506182732 62 310 3.5 8.7 0.00 1.24 0.39 48 1010.2
20260506182231 62 309 4.3 8.7 0.00 1.24 0.39 49 1010.3
20260506181731 62 307 3.5 8.7 0.00 1.24 0.39 51 1010.5
20260506181230 61 310 3.5 8.7 0.00 1.24 0.39 52 1010.2
20260506180229 61 312 4.3 10.4 0.00 1.24 0.39 50 1010.3
20260506175729 61 306 3.5 11.3 0.00 1.24 0.39 51 1010.1